User: anonymous   Login
Location: Quebec
(46.8000°N, 71.2500°W)
Time: 14:23:18
(UTC-04:00)
Language:

CZ-4B R/B - Orbit

View from above orbital plane
View from above orbital plane
View from above satellite
View from above satellite

Ground track
Ground track

The orbit data is extracted from the following two-line orbital elements,

1 29093U 06015B   15214.21097454  .00005649  00000-0  16852-3 0  9999
2 29093 097.4942 301.8037 0075749 248.4576 167.6296 15.32227375512350
Epoch (UTC): 02 August 2015 05:03:48
Eccentricity: 0.0075749
inclination: 97.4942°
perigee height: 417 km
apogee height: 521 km
right ascension of ascending node: 301.8037°
argument of perigee: 248.4576°
revolutions per day: 15.32227375
mean anomaly at epoch: 167.6296°
orbit number at epoch: 51235

The dashed part of the orbit path shows where the satellite is in the earth's shadow,  

DLR